Tracking 31011 objects as of 12-Jul-2025
HD Live streaming from Space Station
objects crossing your sky now

CZ-6A DEB

Track CZ-6A DEB now!
10-day predictions


NORAD ID: 54414
Int'l Code: 2022-151EN
Perigee: 829.5 km
Apogee: 1,002.3 km
Inclination: 98.9 °
Period: 103.2 minutes
Semi major axis: 7286 km
RCS: Unknown
Launch date: November 11, 2022
Source: People's Republic of China (PRC)
Launch site: Taiyaun Space Center, China (TSC)

Note: This is SATELLITE DEBRIS
Your satellite tracking list
Your tracking list is empty




NASA's NSSDC Master Catalog

Two Line Element Set (TLE):
1 54414U 22151EN  25192.68856608  .00000068  00000-0  77097-4 0  9993
2 54414  98.9181 175.6746 0118533 285.8296  72.9825 13.95689138135198
Source of the keplerian elements: AFSPC